This is the latest recevied weather packets stored in our database for station/object KQ7A. If no packets are shown the sender has not sent any weather packets the latest 10 day(s).
| Time | Temp. | Humidity | Pressure | Rain* | Wind** | Luminosity | Snow |
|---|---|---|---|---|---|---|---|
| 1788601321 | 15° C | 45% | 1017.1 hPa | 0 mm | - | 0 W/m² | - |
| 1788601016 | 13.89° C | 51% | 1017 hPa | 0 mm | - | 0 W/m² | - |
| 1788600712 | 15.56° C | 46% | 1017.1 hPa | 0 mm | - | 0 W/m² | - |
| 1788600407 | 15.56° C | 45% | 1017 hPa | 0 mm | - | 0 W/m² | - |
| 1788600103 | 15.56° C | 47% | 1017.3 hPa | 0 mm | - | 0 W/m² | - |
| 1788599802 | 15.56° C | 47% | 1017 hPa | 0 mm | - | 0 W/m² | - |
| 1788599501 | 15.56° C | 46% | 1016.9 hPa | 0 mm | - | 0 W/m² | - |
| 1788599197 | 15.56° C | 45% | 1017.1 hPa | 0 mm | - | 0 W/m² | - |
| 1788598893 | 15.56° C | 47% | 1017.1 hPa | 0 mm | - | 0 W/m² | - |
| 1788598590 | 15° C | 48% | 1017.1 hPa | 0 mm | - | 0 W/m² | - |
| 1788598280 | 15.56° C | 48% | 1017 hPa | 0 mm | - | 0 W/m² | - |
| 1788597980 | 15° C | 51% | 1017.3 hPa | 0 mm | - | 0 W/m² | - |
| 1788597675 | 15° C | 51% | 1017.3 hPa | 0 mm | - | 0 W/m² | - |
| 1788597369 | 15.56° C | 48% | 1017.5 hPa | 0 mm | - | 0 W/m² | - |
| 1788597066 | 15.56° C | 48% | 1017 hPa | 0 mm | - | 0 W/m² | - |
| 1788596760 | 15° C | 50% | 1017 hPa | 0 mm | - | 0 W/m² | - |
| 1788596457 | 15.56° C | 48% | 1017.4 hPa | 0 mm | - | 0 W/m² | - |
| 1788596155 | 15.56° C | 49% | 1017.4 hPa | 0 mm | - | 0 W/m² | - |
| 1788595851 | 15° C | 50% | 1017.4 hPa | 0 mm | - | 0 W/m² | - |
| 1788595550 | 15° C | 50% | 1017.4 hPa | 0 mm | - | 0 W/m² | - |
| 1788595245 | 15° C | 50% | 1017.5 hPa | 0 mm | - | 0 W/m² | - |
| 1788594938 | 15° C | 49% | 1017.1 hPa | 0 mm | - | 0 W/m² | - |
| 1788594633 | 14.44° C | 51% | 1017.4 hPa | 0 mm | - | 0 W/m² | - |
| 1788594332 | 13.33° C | 54% | 1017.4 hPa | 0 mm | - | 0 W/m² | - |
| 1788594028 | 13.89° C | 54% | 1017.4 hPa | 0 mm | - | 0 W/m² | - |
* Rain latest hour (hover to see other rain measurements)
** Current wind speed in m/s (hover to see current wind gust speed)